FW5122 Weather Reports


Display with metric or nautical units.
time (UTC)temp
F
wind
direction
speed
MPH
gust
MPH
rain 1hr
in
rain 24hr
in
rain mn
in
humidity
%
barometer
mb
20260508122732 60 5 0.0 0.0 0.00 0.00 0.00 85 1015.5
20260508122031 60 5 0.0 2.0 0.00 0.00 0.00 84 1015.1
20260508121332 60 10 0.0 2.0 0.00 0.00 0.00 84 1015.5
20260508120633 60 6 0.0 2.0 0.00 0.00 0.00 84 1015.5
20260508115932 60 6 0.0 2.0 0.00 0.00 0.00 84 1015.5
20260508115232 60 6 0.0 2.0 0.00 0.00 0.00 84 1015.5
20260508114532 60 5 0.0 2.0 0.00 0.00 0.00 84 1015.5
20260508113831 60 5 0.0 2.0 0.00 0.00 0.00 84 1015.5
20260508113132 60 8 0.0 2.0 0.00 0.00 0.00 83 1015.5
20260508112431 60 7 0.0 2.0 0.00 0.00 0.00 83 1015.5
20260508110331 60 8 0.0 2.0 0.00 0.00 0.00 83 1015.8
20260508105631 60 3 0.0 2.0 0.00 0.00 0.00 83 1015.8
20260508104932 59 3 0.0 2.0 0.00 0.00 0.00 82 1015.5
20260508104232 60 3 0.0 2.0 0.00 0.00 0.00 82 1015.1
20260508103531 60 3 0.0 2.0 0.00 0.00 0.00 82 1014.8
20260508102832 60 5 0.0 2.0 0.00 0.00 0.00 82 1014.5
20260508102131 60 7 0.0 2.0 0.00 0.00 0.00 82 1014.5
20260508101432 60 13 2.0 2.0 0.00 0.00 0.00 81 1014.5
20260508100732 60 8 0.0 0.0 0.00 0.00 0.00 81 1014.5
20260508100032 60 8 0.0 0.0 0.00 0.00 0.00 81 1014.8
20260508093932 61 4 0.0 6.0 0.00 0.00 0.00 80 1014.8
20260508093231 61 4 0.0 6.0 0.00 0.00 0.00 80 1014.8
20260508092531 61 3 0.0 6.0 0.00 0.00 0.00 80 1015.1
20260508091831 62 14 0.0 6.0 0.00 0.00 0.00 79 1014.8
20260508091131 62 7 0.0 6.0 0.00 0.00 0.00 79 1014.8
20260508090431 62 6 0.0 6.0 0.00 0.00 0.00 79 1014.8
20260508085031 62 24 5.0 6.0 0.00 0.00 0.00 79 1014.8
20260508084331 62 8 2.0 4.0 0.00 0.00 0.00 79 1014.8
20260508083631 62 13 0.0 2.0 0.00 0.00 0.00 79 1015.1
20260508080831 62 9 0.0 0.0 0.00 0.00 0.00 79 1016.2
20260508080132 62 5 0.0 0.0 0.00 0.00 0.00 79 1015.8
20260508075433 62 4 0.0 0.0 0.00 0.00 0.00 79 1016.2
20260508074731 62 8 0.0 0.0 0.00 0.00 0.00 79 1016.2
20260508074031 62 8 0.0 0.0 0.00 0.00 0.00 79 1015.8
20260508073331 62 8 0.0 0.0 0.00 0.00 0.00 79 1015.8
20260508072631 62 2 0.0 0.0 0.00 0.00 0.00 78 1015.8
20260508071931 62 13 0.0 0.0 0.00 0.00 0.00 78 1015.5
20260508071231 62 10 0.0 0.0 0.00 0.00 0.00 78 1016.2
20260508070531 62 10 0.0 0.0 0.00 0.00 0.00 78 1016.2
20260508065831 62 11 0.0 0.0 0.00 0.00 0.00 78 1015.8
20260508065131 62 11 0.0 0.0 0.00 0.00 0.00 78 1015.8
20260508064431 62 11 0.0 0.0 0.00 0.00 0.00 78 1016.2
20260508063031 61 11 0.0 0.0 0.00 0.00 0.00 78 1016.2
20260508061631 61 10 0.0 0.0 0.00 0.00 0.00 78 1016.5
20260508054831 61 11 0.0 0.0 0.00 0.00 0.00 78 1016.5
20260508054131 61 10 0.0 0.0 0.00 0.00 0.00 77 1016.8
20260508052731 61 10 0.0 0.0 0.00 0.00 0.00 77 1016.5
20260508052031 62 10 0.0 0.0 0.00 0.00 0.00 77 1016.5
20260508051331 62 10 0.0 0.0 0.00 0.00 0.00 76 1016.5
20260508050631 62 10 0.0 0.0 0.00 0.00 0.00 76 1016.5
20260508045231 62 9 0.0 0.0 0.00 0.00 0.00 76 1016.5
20260508044532 62 9 0.0 0.0 0.00 0.00 0.00 75 1016.5
20260508043831 62 9 0.0 0.0 0.00 0.00 0.00 75 1016.5
20260508042431 62 8 0.0 0.0 0.00 0.00 0.00 75 1016.5
20260508041731 62 9 0.0 0.0 0.00 0.00 0.00 75 1016.2
20260508040331 62 8 0.0 0.0 0.00 0.00 0.00 74 1016.2
20260508035631 62 8 0.0 0.0 0.00 0.00 0.00 73 1016.5
20260508034932 62 8 0.0 0.0 0.00 0.00 0.00 73 1016.5
20260508034231 62 8 0.0 0.0 0.00 0.00 0.00 73 1016.2
20260508032832 63 8 0.0 0.0 0.00 0.00 0.00 72 1016.2
20260508032131 63 8 0.0 0.0 0.00 0.00 0.00 72 1015.8
20260508031431 63 8 0.0 0.0 0.00 0.00 0.00 72 1015.8
20260508030731 63 5 0.0 0.0 0.00 0.00 0.00 71 1016.2
20260508030031 63 3 0.0 0.0 0.00 0.00 0.00 71 1015.8
20260508022530 64 4 0.0 0.0 0.00 0.00 0.00 69 1016.2
20260508021830 64 4 0.0 0.0 0.00 0.00 0.00 68 1015.8
20260508021130 64 4 0.0 0.0 0.00 0.00 0.00 68 1015.8
20260508020431 64 3 0.0 0.0 0.00 0.00 0.00 67 1015.8
20260508015730 65 8 0.0 2.0 0.00 0.00 0.00 67 1015.5
20260508015031 65 8 0.0 2.0 0.00 0.00 0.00 67 1015.8
20260508013630 66 8 0.0 2.0 0.00 0.00 0.00 65 1015.5
20260508012931 66 9 0.0 2.0 0.00 0.00 0.00 65 1015.8
20260508012231 66 6 0.0 2.0 0.00 0.00 0.00 64 1015.8
20260508011531 66 8 0.0 6.0 0.00 0.00 0.00 64 1015.5
20260508010831 66 9 0.0 6.0 0.00 0.00 0.00 64 1015.8
20260508005431 67 10 0.0 6.0 0.00 0.00 0.00 63 1015.5
20260508004731 67 10 0.0 6.0 0.00 0.00 0.00 63 1015.8
20260508004030 67 3 0.0 6.0 0.00 0.00 0.00 62 1015.8
20260507235830 68 22 2.0 8.0 0.00 0.00 0.00 60 1015.8
20260507235133 68 14 5.0 8.0 0.00 0.00 0.00 61 1015.5
20260507234435 69 60 2.0 10.0 0.00 0.00 0.00 61 1015.8
20260507233733 69 14 8.0 10.0 0.00 0.00 0.00 61 1015.8
20260507232333 69 346 5.0 10.0 0.00 0.00 0.00 60 1015.8
20260507230934 69 34 5.0 10.0 0.00 0.00 0.00 60 1015.8
20260507230233 69 40 5.0 10.0 0.00 0.00 0.00 60 1015.8
20260507225533 70 15 2.0 8.0 0.00 0.00 0.00 60 1015.8
20260507224133 70 24 5.0 10.0 0.00 0.00 0.00 59 1015.8
20260507222733 70 27 2.0 10.0 0.00 0.00 0.00 59 1015.8
20260507222033 70 5 0.0 10.0 0.00 0.00 0.00 58 1016.2
20260507214533 72 7 0.0 6.0 0.00 0.00 0.00 55 1015.8
20260507213833 72 2 0.0 6.0 0.00 0.00 0.00 55 1016.5
20260507213133 72 0 0.0 6.0 0.00 0.00 0.00 55 1016.5
20260507212433 72 19 8.0 6.0 0.00 0.00 0.00 55 1016.5
20260507211733 72 7 2.0 6.0 0.00 0.00 0.00 55 1016.5
20260507211033 72 6 0.0 6.0 0.00 0.00 0.00 54 1016.5
20260507210333 72 38 5.0 6.0 0.00 0.00 0.00 55 1016.5
20260507205633 72 10 5.0 6.0 0.00 0.00 0.00 54 1016.8
20260507204933 73 44 5.0 6.0 0.00 0.00 0.00 54 1016.5
20260507204232 73 12 0.0 6.0 0.00 0.00 0.00 53 1016.5
20260507203533 73 39 5.0 8.0 0.00 0.00 0.00 53 1016.5
20260507202833 73 20 0.0 8.0 0.00 0.00 0.00 53 1016.2
20260507202132 73 359 5.0 8.0 0.00 0.00 0.00 52 1016.8
20260507201433 73 9 0.0 8.0 0.00 0.00 0.00 52 1016.8
20260507200733 73 4 2.0 8.0 0.00 0.00 0.00 52 1016.8
20260507200033 73 8 0.0 8.0 0.00 0.00 0.00 52 1017.2
20260507195333 73 356 2.0 8.0 0.00 0.00 0.00 52 1017.2
20260507194633 74 22 8.0 8.0 0.00 0.00 0.00 52 1017.2
20260507193932 74 11 2.0 8.0 0.00 0.00 0.00 51 1017.5
20260507193232 74 5 5.0 8.0 0.00 0.00 0.00 52 1017.5
20260507191133 74 15 8.0 10.0 0.00 0.00 0.00 53 1017.9
20260507190432 74 351 2.0 10.0 0.00 0.00 0.00 52 1017.5
20260507185733 74 344 5.0 10.0 0.00 0.00 0.00 51 1017.9
20260507185033 74 10 8.0 10.0 0.00 0.00 0.00 51 1017.9
20260507184332 74 33 8.0 10.0 0.00 0.00 0.00 53 1017.9
20260507183632 74 8 2.0 10.0 0.00 0.00 0.00 53 1017.9
20260507181532 72 14 5.0 10.0 0.00 0.00 0.00 54 1018.2
20260507180833 72 4 5.0 10.0 0.00 0.00 0.00 51 1018.2
20260507175432 72 13 11.0 10.0 0.00 0.00 0.00 55 1018.5
20260507174733 71 344 5.0 8.0 0.00 0.00 0.00 57 1018.5
20260507173332 70 4 2.0 8.0 0.00 0.00 0.00 56 1018.9
20260507172632 70 334 8.0 8.0 0.00 0.00 0.00 56 1019.2
20260507171932 70 0 5.0 8.0 0.00 0.00 0.00 58 1019.2
20260507171232 69 41 8.0 8.0 0.00 0.00 0.00 59 1019.2
20260507170532 69 339 2.0 10.0 0.00 0.00 0.00 58 1019.6
20260507165832 69 15 5.0 10.0 0.00 0.00 0.00 61 1019.6
20260507164432 69 346 5.0 10.0 0.00 0.00 0.00 61 1019.9
20260507163732 68 17 2.0 10.0 0.00 0.00 0.00 63 1019.9
20260507163033 68 334 5.0 10.0 0.00 0.00 0.00 61 1019.9
20260507162332 68 31 2.0 10.0 0.00 0.00 0.00 63 1020.2
20260507160932 67 356 8.0 8.0 0.00 0.00 0.00 65 1020.2
20260507160232 67 351 5.0 6.0 0.00 0.00 0.00 66 1019.9
20260507155533 66 357 5.0 6.0 0.00 0.00 0.00 66 1020.2
20260507154832 66 345 5.0 6.0 0.00 0.00 0.00 67 1020.2
20260507154132 65 6 5.0 6.0 0.00 0.00 0.00 67 1020.2
20260507152732 65 354 5.0 6.0 0.00 0.00 0.00 70 1020.2
20260507152032 64 5 2.0 6.0 0.00 0.00 0.00 70 1020.2
20260507151335 64 1 5.0 6.0 0.00 0.00 0.00 72 1020.6
20260507150632 63 8 0.0 6.0 0.00 0.00 0.00 72 1020.6
20260507145933 63 352 2.0 6.0 0.00 0.00 0.00 73 1020.6
20260507145232 62 2 5.0 6.0 0.00 0.00 0.00 73 1020.6
20260507144532 62 2 5.0 6.0 0.00 0.00 0.00 74 1020.6
20260507143832 61 31 5.0 4.0 0.00 0.00 0.00 75 1020.6
20260507142432 60 25 5.0 4.0 0.00 0.00 0.00 76 1020.6
20260507141732 60 7 5.0 4.0 0.00 0.00 0.00 77 1020.6
20260507141032 60 6 0.0 4.0 0.00 0.00 0.00 78 1020.6
20260507140332 59 10 5.0 4.0 0.00 0.00 0.00 79 1020.6
20260507135632 59 356 5.0 4.0 0.00 0.00 0.00 79 1020.9
20260507134932 59 358 2.0 4.0 0.00 0.00 0.00 80 1021.2
20260507134232 58 5 2.0 4.0 0.00 0.00 0.00 82 1020.9
20260507133532 58 3 0.0 4.0 0.00 0.00 0.00 83 1021.2
20260507132832 57 3 0.0 2.0 0.00 0.00 0.00 83 1021.2
20260507132132 57 356 2.0 2.0 0.00 0.00 0.00 84 1021.2
20260507131432 57 4 0.0 0.0 0.00 0.00 0.00 85 1021.2
20260507130740 56 4 0.0 0.0 0.00 0.00 0.00 86 1021.2
20260507125532 55 0 0.0 0.0 0.00 0.00 0.00 87 1021.2
20260507124832 55 359 0.0 0.0 0.00 0.00 0.00 87 1021.2
20260507124132 54 1 0.0 0.0 0.00 0.00 0.00 87 1021.2
20260507123432 54 1 0.0 0.0 0.00 0.00 0.00 87 1020.6